Total_Precipitation_Accumulation
0.81 0.84 0.84 0.80 0.75 0.70 0.67 0.65 0.60 0.51 0.44 0.39 0.34 0.31 0.30 0.27 0.26 0.27 0.30 0.32 0.34 0.36 0.38 0.42 0.46 0.48 0.53 0.56 0.53 0.51 0.49 0.48 0.49 0.42 0.34 0.28 0.25 0.25 0.23 0.23 0.21 0.20 0.19
0.60 0.60 0.64 0.58 0.52 0.49 0.46 0.41 0.38 0.36 0.32 0.28 0.24 0.22 0.23 0.24 0.22 0.22 0.24 0.26 0.28 0.29 0.28 0.29 0.30 0.32 0.36 0.38 0.39 0.39 0.39 0.41 0.42 0.41 0.35 0.29 0.28 0.28 0.27 0.27 0.17 0.15 0.17
0.48 0.46 0.48 0.47 0.45 0.41 0.36 0.31 0.27 0.27 0.27 0.24 0.21 0.19 0.18 0.17 0.17 0.16 0.17 0.18 0.19 0.20 0.20 0.21 0.21 0.21 0.23 0.24 0.27 0.29 0.31 0.33 0.40 0.42 0.35 0.30 0.26 0.22 0.25 0.22 0.19 0.27 0.18
0.41 0.40 0.38 0.37 0.36 0.35 0.31 0.30 0.28 0.23 0.19 0.17 0.16 0.14 0.14 0.12 0.12 0.12 0.12 0.12 0.12 0.12 0.11 0.11 0.11 0.12 0.15 0.19 0.21 0.25 0.29 0.33 0.37 0.39 0.33 0.26 0.24 0.21 0.28 0.28 0.26 0.28 0.22
0.40 0.43 0.41 0.36 0.31 0.29 0.28 0.26 0.25 0.22 0.18 0.13 0.10 0.08 0.06 0.05 0.06 0.06 0.07 0.07 0.08 0.08 0.07 0.06 0.05 0.05 0.07 0.12 0.16 0.21 0.28 0.34 0.36 0.38 0.35 0.31 0.27 0.29 0.31 0.31 0.32 0.29 0.24
0.45 0.48 0.46 0.41 0.35 0.30 0.25 0.20 0.18 0.16 0.13 0.10 0.07 0.05 0.04 0.03 0.03 0.02 0.03 0.05 0.07 0.07 0.07 0.06 0.04 0.03 0.04 0.07 0.10 0.16 0.24 0.31 0.34 0.38 0.37 0.37 0.34 0.37 0.41 0.42 0.44 0.43 0.39
0.45 0.42 0.41 0.35 0.31 0.26 0.21 0.17 0.15 0.15 0.14 0.11 0.08 0.06 0.05 0.03 0.01 0.01 0.01 0.04 0.08 0.11 0.12 0.11 0.08 0.05 0.08 0.11 0.10 0.10 0.14 0.15 0.24 0.37 0.44 0.45 0.46 0.50 0.58 0.57 0.55 0.55 0.51
0.36 0.33 0.28 0.25 0.23 0.19 0.16 0.15 0.15 0.15 0.15 0.14 0.11 0.08 0.07 0.03 0.00 0.00 0.00 0.05 0.10 0.10 0.11 0.13 0.16 0.16 0.11 0.09 0.09 0.14 0.20 0.23 0.26 0.35 0.49 0.52 0.50 0.52 0.59 0.62 0.61 0.60 0.57
0.30 0.29 0.23 0.18 0.18 0.18 0.16 0.15 0.16 0.18 0.18 0.17 0.14 0.12 0.11 0.07 0.01 0.00 0.01 0.06 0.09 0.08 0.08 0.08 0.09 0.12 0.09 0.10 0.14 0.24 0.28 0.33 0.27 0.37 0.47 0.52 0.53 0.56 0.57 0.60 0.69 0.76 0.72
0.25 0.22 0.18 0.17 0.17 0.16 0.16 0.16 0.16 0.18 0.18 0.15 0.14 0.15 0.14 0.11 0.02 0.00 0.01 0.05 0.10 0.10 0.11 0.13 0.09 0.08 0.10 0.10 0.13 0.23 0.32 0.34 0.43 0.63 0.76 0.76 0.72 0.69 0.64 0.67 0.77 0.80 0.81
0.18 0.18 0.17 0.17 0.15 0.14 0.17 0.19 0.18 0.17 0.17 0.16 0.16 0.16 0.14 0.07 0.02 0.01 0.02 0.03 0.07 0.10 0.14 0.20 0.18 0.12 0.11 0.09 0.10 0.20 0.28 0.30 0.51 0.85 0.89 0.79 0.69 0.67 0.63 0.62 0.66 0.74 0.81
0.21 0.21 0.20 0.17 0.11 0.11 0.19 0.22 0.18 0.18 0.19 0.19 0.20 0.20 0.15 0.10 0.04 0.01 0.01 0.02 0.04 0.10 0.19 0.20 0.18 0.15 0.12 0.12 0.14 0.22 0.29 0.41 0.66 0.90 0.88 0.75 0.61 0.54 0.50 0.47 0.51 0.60 0.70
0.22 0.24 0.21 0.15 0.13 0.13 0.16 0.19 0.17 0.17 0.16 0.14 0.15 0.16 0.14 0.12 0.07 0.02 0.01 0.02 0.04 0.09 0.17 0.20 0.20 0.18 0.20 0.30 0.33 0.36 0.47 0.64 0.78 0.84 0.78 0.66 0.55 0.49 0.44 0.44 0.43 0.51 0.58
0.27 0.24 0.20 0.18 0.16 0.14 0.13 0.11 0.11 0.12 0.11 0.11 0.12 0.13 0.13 0.13 0.08 0.05 0.05 0.06 0.07 0.10 0.18 0.28 0.36 0.38 0.43 0.53 0.60 0.65 0.67 0.69 0.69 0.69 0.64 0.56 0.50 0.48 0.44 0.40 0.41 0.45 0.54
0.28 0.23 0.20 0.17 0.14 0.13 0.10 0.07 0.07 0.06 0.04 0.06 0.07 0.07 0.10 0.10 0.06 0.06 0.07 0.07 0.09 0.12 0.17 0.30 0.47 0.55 0.61 0.64 0.66 0.67 0.65 0.60 0.58 0.55 0.52 0.48 0.48 0.47 0.44 0.38 0.38 0.41 0.49
0.23 0.19 0.14 0.11 0.10 0.08 0.09 0.08 0.03 0.01 0.01 0.01 0.02 0.03 0.04 0.05 0.05 0.05 0.07 0.09 0.11 0.15 0.20 0.36 0.47 0.53 0.58 0.59 0.59 0.57 0.53 0.49 0.46 0.44 0.43 0.39 0.37 0.39 0.40 0.37 0.35 0.39 0.46
0.13 0.10 0.07 0.06 0.06 0.05 0.07 0.15 0.17 0.10 0.02 0.01 0.01 0.02 0.03 0.04 0.04 0.04 0.05 0.07 0.10 0.17 0.25 0.39 0.48 0.51 0.56 0.58 0.53 0.49 0.47 0.43 0.37 0.33 0.34 0.32 0.28 0.29 0.33 0.36 0.35 0.36 0.37
0.06 0.04 0.04 0.05 0.03 0.03 0.05 0.08 0.14 0.21 0.20 0.13 0.05 0.02 0.03 0.04 0.05 0.05 0.06 0.09 0.15 0.21 0.32 0.42 0.47 0.49 0.52 0.53 0.48 0.44 0.42 0.35 0.30 0.27 0.27 0.28 0.27 0.27 0.29 0.31 0.30 0.28 0.30
0.03 0.04 0.04 0.02 0.02 0.02 0.03 0.04 0.05 0.11 0.17 0.19 0.15 0.08 0.06 0.08 0.10 0.11 0.12 0.15 0.19 0.24 0.29 0.35 0.40 0.43 0.45 0.44 0.41 0.36 0.33 0.30 0.26 0.24 0.24 0.25 0.26 0.25 0.24 0.22 0.21 0.16 0.22
0.03 0.02 0.02 0.02 0.02 0.02 0.02 0.03 0.04 0.08 0.11 0.13 0.13 0.09 0.10 0.16 0.21 0.20 0.17 0.15 0.15 0.18 0.23 0.28 0.32 0.33 0.33 0.33 0.30 0.26 0.25 0.24 0.22 0.22 0.22 0.23 0.23 0.21 0.18 0.17 0.17 0.18 0.19
0.02 0.02 0.01 0.01 0.01 0.01 0.01 0.02 0.03 0.06 0.08 0.10 0.08 0.06 0.11 0.18 0.23 0.23 0.21 0.18 0.17 0.18 0.20 0.22 0.24 0.24 0.22 0.20 0.20 0.19 0.18 0.18 0.19 0.22 0.23 0.21 0.18 0.15 0.11 0.10 0.09 0.09 0.10
0.01 0.02 0.01 0.01 0.01 0.00 0.00 0.01 0.01 0.03 0.06 0.07 0.07 0.06 0.11 0.15 0.20 0.20 0.20 0.19 0.18 0.19 0.20 0.20 0.20 0.19 0.18 0.17 0.17 0.16 0.14 0.15 0.16 0.20 0.21 0.19 0.15 0.10 0.07 0.06 0.05 0.04 0.04
0.01 0.01 0.00 0.00 0.00 0.00 0.00 0.01 0.01 0.02 0.04 0.05 0.05 0.06 0.08 0.12 0.14 0.18 0.20 0.18 0.15 0.15 0.14 0.15 0.16 0.16 0.15 0.14 0.14 0.12 0.10 0.11 0.13 0.16 0.22 0.20 0.14 0.08 0.06 0.06 0.05 0.04 0.03
0.00 0.00 0.00 0.00 0.00 0.00 0.00 0.01 0.01 0.01 0.02 0.03 0.03 0.05 0.07 0.08 0.10 0.15 0.18 0.17 0.16 0.15 0.14 0.13 0.14 0.14 0.14 0.13 0.11 0.08 0.05 0.06 0.08 0.11 0.17 0.16 0.10 0.06 0.06 0.06 0.05 0.04 0.04
0.00 0.00 0.00 0.00 0.00 0.00 0.00 0.00 0.00 0.00 0.01 0.01 0.02 0.03 0.05 0.05 0.05 0.08 0.12 0.14 0.15 0.17 0.16 0.12 0.10 0.10 0.09 0.07 0.05 0.04 0.05 0.05 0.05 0.06 0.11 0.12 0.07 0.05 0.05 0.05 0.04 0.04 0.04
0.00 0.00 0.00 0.00 0.00 0.00 0.00 0.00 0.00 0.00 0.00 0.00 0.00 0.01 0.01 0.02 0.02 0.03 0.05 0.07 0.10 0.13 0.13 0.12 0.10 0.07 0.05 0.02 0.02 0.03 0.04 0.03 0.02 0.03 0.07 0.11 0.08 0.05 0.06 0.06 0.03 0.04 0.05